Probability
0 0 0 0 0 0 0 0 0 0 0 0 0 0 1 24 68 95 99 100 95 73 37 19 35 64 82 86 89 92 90 85 79 72 53 33 24 26 26 25 33 40 49 59
0 0 0 0 0 0 0 0 0 0 0 0 0 0 6 32 71 95 99 97 87 61 28 19 33 50 60 64 68 73 75 73 72 67 50 32 26 27 25 25 28 31 38 48
0 0 0 0 0 0 0 0 0 0 0 0 0 0 10 42 75 92 92 83 63 34 14 16 26 28 29 31 31 36 44 55 66 66 51 33 25 23 20 19 20 19 23 31
0 0 0 0 0 0 0 0 0 0 0 0 0 0 8 29 54 67 66 52 29 10 4 7 11 10 9 7 7 9 17 33 53 60 47 28 16 12 11 9 7 7 9 11
0 0 0 0 0 0 0 0 0 0 0 0 0 0 1 8 19 26 27 19 7 1 0 0 0 1 1 0 1 2 5 13 31 41 33 17 7 3 3 2 0 0 0 1
0 0 0 0 0 0 0 0 0 0 0 0 0 0 0 1 2 3 3 2 0 0 0 0 0 0 0 0 0 0 1 9 23 32 24 11 3 0 0 0 0 0 0 0
0 0 0 0 0 0 0 0 0 0 0 0 0 0 0 0 0 0 0 0 0 0 0 0 0 0 0 0 0 2 6 15 27 30 21 10 3 0 0 0 0 0 0 0
0 0 0 0 0 0 0 0 0 0 0 0 0 0 0 0 0 0 0 0 0 0 0 0 0 0 0 0 0 3 8 12 18 20 12 5 1 0 0 0 0 0 0 0
0 0 0 0 0 0 0 0 0 0 0 0 0 0 0 0 0 0 0 0 0 0 0 0 0 0 0 0 0 2 4 4 5 7 4 1 0 0 0 0 0 0 0 0
0 0 0 0 0 0 0 0 0 0 0 0 0 0 0 0 0 0 0 0 0 0 0 0 0 0 0 0 0 0 0 0 1 2 1 0 0 0 0 0 0 0 0 0
0 0 0 0 0 0 0 0 0 0 0 0 0 0 0 0 0 0 0 0 0 0 0 0 0 0 0 0 0 0 0 0 1 0 0 0 0 0 0 0 0 0 0 0
0 0 0 0 0 0 0 0 0 0 0 0 0 0 0 0 0 0 0 0 0 0 0 0 0 0 0 0 0 0 0 0 0 0 0 0 0 0 0 0 0 0 0 0
0 0 0 0 0 0 0 0 0 0 0 0 0 0 0 0 0 0 0 0 0 0 0 0 0 0 0 0 0 0 0 0 0 0 0 0 0 0 0 0 0 0 0 0
0 0 0 0 0 0 0 0 0 0 0 0 0 0 0 0 0 0 0 0 0 0 0 0 0 0 0 0 0 0 0 0 0 0 0 0 0 0 0 0 0 0 0 0
0 0 0 0 0 0 0 0 0 0 0 0 0 0 0 0 0 0 0 0 1 1 0 0 0 0 0 0 0 0 0 0 0 0 0 0 0 0 0 0 0 0 0 0
0 0 0 0 0 0 0 0 0 0 0 0 0 0 0 0 0 0 0 0 1 1 0 0 0 0 0 0 0 0 0 0 0 0 0 0 0 0 0 0 0 0 0 0
0 0 0 0 0 0 0 0 0 0 0 0 0 0 0 0 0 0 0 0 1 1 0 0 0 0 0 0 0 0 0 0 0 0 0 0 0 0 0 0 0 0 0 0
0 0 0 0 0 0 0 0 0 0 0 0 0 0 0 0 0 0 0 0 0 0 0 0 0 0 0 0 0 0 0 0 0 0 0 0 0 0 0 0 0 0 0 0
0 0 0 0 0 0 0 0 0 0 0 0 0 0 0 0 0 0 0 0 0 0 0 0 0 0 0 0 0 0 0 0 0 0 0 0 0 0 0 0 0 0 0 0
0 0 0 0 0 0 0 0 0 0 0 0 0 0 0 0 0 0 0 0 0 0 0 0 0 0 0 0 0 0 0 0 0 0 0 0 0 0 0 0 0 0 0 0
0 0 0 0 0 0 0 0 0 0 0 0 0 0 0 0 0 0 0 0 0 0 0 0 0 0 0 0 0 0 0 0 0 0 0 0 0 0 0 0 0 0 0 0
0 0 0 0 0 0 0 0 0 0 0 0 0 0 0 0 0 0 0 0 0 0 0 0 0 0 0 0 0 0 0 0 0 0 0 0 0 0 0 0 0 0 0 0
0 0 0 0 0 0 0 0 0 0 0 0 0 0 0 0 0 0 0 0 0 0 0 0 0 0 0 0 0 0 0 0 0 0 0 0 0 0 0 0 0 0 0 0
0 0 0 0 0 0 0 0 0 0 0 0 0 0 0 0 0 0 0 0 0 0 0 0 0 0 0 0 0 0 0 0 0 0 0 0 0 0 0 0 0 0 0 0
0 0 0 0 0 0 0 0 0 0 0 0 0 0 0 0 0 0 0 0 0 0 0 0 0 0 0 0 0 0 0 0 0 0 0 0 0 0 0 0 0 0 0 0
0 0 0 0 0 0 0 0 0 0 0 0 0 0 0 0 0 0 0 0 0 0 0 0 0 0 0 0 0 0 0 0 0 0 0 0 0 0 0 0 0 0 0 0
Wind_Speed
1 0 4 6 6 7 5 2 3 5 8 7 5 4 5 6 10 14 11 10 9 7 4 2 2 3 2 1 0 2 3 1 1 0 1 1 3 3 4 5 6 5 5 6
3 6 13 8 2 2 2 3 3 5 9 8 6 6 6 4 11 15 11 9 7 5 3 2 1 2 0 2 1 1 1 2 1 1 2 3 3 4 4 4 6 6 7 7
8 9 5 1 5 5 4 3 2 2 3 4 5 6 10 8 13 12 7 7 7 6 5 4 3 3 3 2 3 4 4 4 4 4 2 2 3 4 3 4 4 6 7 7
2 2 3 4 4 3 2 1 3 3 3 1 3 1 1 4 7 7 8 6 6 7 8 7 7 7 7 7 6 7 7 6 6 5 3 3 3 3 4 4 5 8 8 9
3 2 1 1 2 3 2 1 4 2 3 3 1 3 4 4 4 4 3 3 4 7 9 11 11 10 9 8 7 7 6 7 8 6 5 2 2 3 4 5 7 9 9 9
3 4 2 1 3 2 3 6 8 6 4 3 4 2 5 5 5 4 3 5 7 8 9 11 9 7 5 5 5 5 4 6 5 3 1 2 2 3 4 6 8 9 10 10
6 4 4 2 3 5 6 6 5 7 5 3 3 3 7 6 8 8 10 11 11 9 7 8 8 5 5 5 6 4 3 5 4 4 4 4 3 2 2 5 7 10 11 11
2 5 3 1 2 3 3 7 5 2 3 6 3 4 5 5 8 10 12 11 11 8 6 6 7 5 5 5 5 4 6 6 5 6 6 6 4 1 1 4 7 9 10 10
1 3 4 5 5 6 3 3 5 4 1 2 2 1 2 3 2 4 8 8 8 7 6 7 8 7 7 5 4 5 6 6 6 4 4 4 2 1 2 5 6 7 9 8
2 3 4 5 3 4 4 3 2 3 1 2 5 4 6 8 11 11 8 6 6 3 3 3 4 5 5 4 3 4 7 6 5 6 6 5 4 2 1 3 5 7 9 9
2 0 5 4 1 2 0 1 2 3 3 2 4 7 8 10 12 11 7 5 3 3 3 5 6 6 7 6 4 3 3 3 4 6 6 6 5 3 1 2 4 6 7 7
1 3 3 6 7 5 5 4 4 4 4 4 4 11 8 2 0 4 4 3 1 3 4 4 6 7 6 6 4 4 4 5 6 7 6 5 4 4 3 2 3 5 6 7
2 3 5 10 8 7 4 1 2 2 1 5 5 7 7 11 11 9 7 6 8 9 10 9 6 5 6 6 4 5 6 6 7 7 7 5 6 5 5 4 3 4 5 6
5 4 4 5 5 4 8 11 12 4 3 8 7 1 8 9 8 9 8 7 7 9 13 16 14 7 7 5 5 5 6 7 7 7 7 7 6 6 6 5 4 4 4 4
5 3 4 6 7 6 9 12 15 13 13 9 4 9 1 0 4 5 5 9 12 13 13 13 13 13 11 10 8 6 7 7 8 7 7 7 7 6 5 5 4 3 3 2
2 3 3 3 5 6 9 13 10 3 3 6 10 4 2 2 6 9 10 10 10 10 11 10 9 9 8 10 14 11 8 8 7 6 7 6 7 7 7 6 5 4 3 1
3 3 1 3 4 6 5 5 6 9 12 4 5 8 11 9 8 8 9 10 11 11 12 12 10 9 8 7 8 11 10 9 5 7 8 8 8 7 7 7 5 5 4 4
5 5 3 1 3 1 2 3 14 15 13 13 13 13 15 15 5 6 10 9 8 8 9 10 7 7 6 8 9 11 12 10 7 9 9 8 9 9 8 7 7 5 5 5
7 6 3 1 2 5 2 3 2 1 7 9 8 9 12 16 11 8 16 12 9 9 9 9 8 5 6 6 7 10 12 11 10 8 8 8 11 11 9 8 8 5 5 5
5 3 3 3 3 5 3 10 13 8 2 7 9 11 12 12 11 13 19 19 19 17 17 17 13 7 6 7 6 7 10 11 8 8 10 9 10 13 11 9 8 5 5 6
6 3 1 2 4 4 7 14 12 4 2 4 3 5 6 3 11 16 16 15 15 13 15 17 15 8 5 5 4 6 6 8 10 9 9 9 12 12 11 8 7 7 7 7
4 4 3 2 3 5 14 10 8 2 2 6 8 9 9 12 15 14 15 15 15 15 15 15 11 8 6 4 3 6 6 5 6 10 10 9 10 10 10 9 7 8 9 8
4 3 2 4 3 1 6 8 5 5 5 9 11 11 11 13 15 15 15 15 15 15 13 10 9 10 8 6 5 5 6 5 4 8 10 9 8 9 9 10 10 7 9 8
6 6 4 3 4 1 5 6 5 5 10 15 15 16 16 16 16 16 16 15 15 16 14 13 11 10 10 9 8 9 7 6 5 9 10 8 8 8 9 9 10 9 9 9
5 6 5 4 4 4 5 7 9 12 15 17 17 16 18 19 19 20 17 17 18 16 15 15 13 14 13 11 10 10 9 8 6 7 11 7 6 9 9 10 10 10 11 12
6 4 3 2 5 5 10 14 15 15 16 17 17 19 20 18 18 21 18 18 17 15 16 16 17 17 12 9 9 10 12 10 7 5 8 6 5 8 8 8 6 3 8 14
Wind_Direction
285 310 266 255 214 215 232 286 5 341 349 49 44 79 133 190 140 115 117 123 135 149 154 160 100 91 90 42 146 235 255 255 154 241 310 283 267 264 272 278 277 285 279 265
339 258 243 243 273 265 326 34 25 350 358 38 29 34 28 53 133 130 130 135 142 141 165 194 94 10 110 91 31 85 227 273 221 194 223 235 244 258 261 269 282 284 281 273
225 245 230 275 347 11 27 73 42 13 348 33 43 15 16 45 104 122 136 137 141 157 183 202 180 228 248 208 209 193 217 222 205 204 226 293 313 311 310 300 294 289 280 274
250 290 56 16 343 31 326 48 47 7 34 334 99 199 327 158 131 154 156 157 156 167 171 188 188 195 199 197 197 205 214 217 217 212 209 237 253 272 275 279 285 290 289 284
308 346 51 352 325 11 270 356 48 359 345 309 213 147 229 228 191 192 163 162 193 186 173 194 203 205 207 201 203 209 219 223 225 220 216 237 280 288 305 319 320 310 300 286
305 314 308 286 11 30 62 31 13 16 44 320 267 157 249 217 210 197 205 207 211 201 201 215 225 221 224 229 223 227 230 239 238 223 170 107 62 13 353 336 324 315 307 297
324 303 303 330 31 15 56 58 20 2 9 277 237 157 257 242 210 189 187 217 233 230 225 234 244 236 227 228 234 250 218 216 195 160 133 123 115 81 353 319 320 314 306 297
317 317 315 333 176 170 108 121 144 180 253 280 265 217 251 234 178 179 191 212 231 243 243 243 239 222 215 217 226 210 195 209 192 174 156 145 135 107 348 324 311 311 307 300
131 283 300 283 232 129 108 157 156 146 255 305 289 259 284 278 276 198 204 221 246 260 242 228 215 192 189 194 186 191 205 217 201 176 131 134 149 101 6 332 323 325 321 326
205 275 298 325 20 56 121 143 64 40 58 316 291 266 216 200 223 225 220 226 242 243 214 204 178 170 179 183 174 190 211 211 194 173 172 169 177 154 0 326 331 329 327 336
101 359 303 336 329 218 146 91 111 133 150 183 282 277 228 210 213 208 197 169 166 183 208 211 207 200 189 180 171 184 199 204 187 196 193 180 183 184 231 298 316 319 321 334
113 105 285 269 260 246 179 179 142 154 235 195 215 269 278 253 253 136 126 90 25 334 312 274 231 206 196 198 194 175 174 187 194 203 210 208 203 204 221 264 292 300 317 336
124 76 352 339 343 353 16 312 208 172 179 235 231 267 6 45 53 56 61 37 15 5 0 346 307 234 222 219 213 193 179 198 203 201 208 220 214 215 225 235 254 280 308 331
92 119 153 202 244 287 308 313 309 301 234 255 222 150 30 32 43 37 41 44 36 26 22 11 2 327 290 259 232 218 209 209 206 203 207 214 212 210 220 234 245 276 301 319
99 167 198 226 247 270 289 296 296 281 262 243 144 114 139 354 64 56 39 39 31 24 21 18 11 12 3 339 309 267 241 224 216 206 208 210 207 208 215 228 232 244 273 325
125 199 211 252 270 287 298 300 292 310 39 94 98 106 228 297 71 49 37 45 31 17 10 8 10 18 9 356 339 309 281 255 235 222 218 200 203 209 211 218 216 207 220 210
218 175 168 269 300 321 332 335 55 57 20 41 72 27 4 8 38 47 37 30 22 14 359 347 351 352 345 334 335 336 318 289 255 241 222 195 197 207 210 208 203 200 198 178
170 135 147 239 0 330 250 107 102 85 43 33 44 31 19 2 329 47 29 5 350 341 324 309 306 314 319 322 328 333 338 310 269 229 218 194 189 202 205 200 199 198 173 173
147 143 149 178 210 266 260 5 317 149 70 44 53 31 13 353 356 335 331 321 309 300 289 283 281 283 295 306 327 338 332 339 326 292 241 206 188 193 201 200 191 188 164 164
40 76 141 186 224 253 274 323 324 317 115 52 39 15 2 359 343 313 308 315 318 318 320 318 308 298 304 308 331 347 329 321 326 322 307 267 203 186 199 198 176 172 168 168
335 329 249 242 248 257 335 320 322 315 331 14 3 319 327 296 260 276 293 293 288 294 299 302 306 298 279 289 326 325 335 330 327 316 317 300 244 190 193 185 168 164 164 158
300 297 289 281 288 322 346 4 20 11 219 251 273 277 268 257 262 275 284 288 290 289 292 300 304 289 273 284 308 309 311 307 320 317 316 297 265 221 184 176 169 166 157 160
349 343 10 44 60 30 68 110 178 212 260 282 291 292 277 267 271 278 279 281 284 283 282 279 291 295 286 282 278 275 274 277 299 301 300 299 287 237 202 174 165 165 163 166
347 25 68 95 40 120 149 168 208 259 277 281 281 278 271 267 272 275 275 277 279 281 283 282 284 284 286 283 270 256 253 267 292 296 292 294 293 267 219 187 167 167 174 176
342 2 17 61 358 308 291 306 274 266 269 273 277 275 267 268 274 275 275 276 274 276 275 273 273 277 274 274 277 272 255 247 248 272 276 267 281 273 231 201 182 180 185 183
15 18 28 297 254 241 264 268 270 285 285 280 281 281 280 278 273 273 273 272 273 272 268 264 264 268 261 255 260 265 263 250 245 259 268 257 265 276 252 206 179 169 191 191